Location: ??????
(42.0089°N, 44.3281°E)
Time: 18:41:03
(UTC+00:00)

USA 267 - Pass Details

Date: 06 June 2022
Orbit: 1101 x 1106 km, 123.0° (Epoch: 28 June)

Event Time Altitude Azimuth Distance (km) Brightness Sun altitude
Rises 23:05:34 0° 135° (SE) 3,906 6.0 -19.2°
Reaches altitude 10° 23:08:03 10° 137° (SE) 2,951 5.4 -19.0°
Maximum altitude 23:14:34 78° 223° (SW) 1,128 3.1 -18.3°
Drops below altitude 10° 23:21:08 10° 310° (NW) 2,963 5.6 -17.7°
Sets 23:23:37 0° 312° (NW) 3,924 6.3 -17.4°
